Observations for Trim Patrick St
| Time | AQI | Temp °C | Hum % | Pres Pa | CO μg/m³ | H₂S μg/m³ | NO μg/m³ | NO₂ μg/m³ | O₃ μg/m³ | SO₂ μg/m³ | PM1 μg/m³ | PM2.5 μg/m³ | PM10 μg/m³ |
|---|---|---|---|---|---|---|---|---|---|---|---|---|---|
| Friday 7 August 2026 | |||||||||||||
| 05:47 | 1 | 13.4 | 77 | 38,460 | 0.28 | 0.98 | 3.46 | 18.84 | 26 | 0 | 2 | 5.4 | 5.94 |
| 05:46 | 1 | 13.4 | 78 | 38,460 | 0.29 | 0 | 3.32 | 17.16 | 16.58 | 0 | 2 | 5.32 | 5.85 |
| 05:45 | 1 | 13.4 | 78 | 38,460 | 0.28 | 0.02 | 3.35 | 15.43 | 17.02 | 0 | 2.86 | 5.36 | 5.9 |
| 05:44 | 1 | 13.4 | 78 | 38,460 | 0.3 | 0 | 3.27 | 16.56 | 16.08 | 0 | 2 | 5.33 | 5.86 |
| 05:43 | 1 | 13.4 | 78 | 38,460 | 0.29 | 0 | 3.26 | 15.24 | 13.75 | 0 | 2.86 | 5.34 | 5.87 |
| 05:42 | 1 | 13.4 | 79 | 38,460 | 0.29 | 0 | 3.17 | 12.86 | 21.18 | 0 | 2 | 5.3 | 5.83 |
| 05:41 | 1 | 13.4 | 79 | 38,460 | 0.29 | 0 | 3.14 | 18.79 | 17.27 | 0 | 2.86 | 6 | 6.59 |
| 05:40 | 1 | 13.4 | 79 | 38,460 | 0.29 | 0 | 3.16 | 11.57 | 19.04 | 0 | 2 | 5.29 | 5.81 |
| 05:39 | 1 | 13.4 | 79 | 38,460 | 0.31 | 0 | 3.21 | 15.42 | 16.04 | 0 | 2 | 5.29 | 5.81 |
| 05:38 | 1 | 13.4 | 79 | 38,460 | 0.29 | 0 | 3.18 | 12.39 | 18.52 | 0 | 2.86 | 5.29 | 5.81 |
| 05:37 | 1 | 13.5 | 79 | 38,460 | 0.29 | 0 | 3.12 | 13.49 | 13.73 | 0 | 2.86 | 5.98 | 6.58 |
| 05:36 | 1 | 13.4 | 79 | 38,460 | 0.3 | 0.59 | 3.22 | 14.39 | 22.37 | 0 | 2 | 4.58 | 5.04 |
| 05:35 | 1 | 13.5 | 79 | 38,460 | 0.3 | 1.29 | 3.17 | 24.88 | 31.54 | 0 | 4.57 | 7.39 | 8.13 |
| 05:34 | 1 | 13.5 | 79 | 38,460 | 0.3 | 0 | 3.06 | 13.9 | 16.87 | 0 | 2.86 | 5.28 | 5.81 |
| 05:33 | 1 | 13.4 | 79 | 38,460 | 0.31 | 0 | 3.16 | 14.63 | 18.16 | 0 | 3.71 | 6.69 | 7.36 |
| 05:32 | 1 | 13.4 | 79 | 38,460 | 0.31 | 0 | 3.15 | 10 | 21.88 | 0 | 2.86 | 6 | 6.59 |
| 05:31 | 1 | 13.4 | 79 | 38,460 | 0.31 | 0.12 | 3.09 | 16.16 | 21.43 | 0 | 2.86 | 5.99 | 6.59 |
| 05:30 | 1 | 13.4 | 79 | 38,460 | 0.3 | 0 | 3.11 | 11.27 | 21.74 | 0 | 2.86 | 5.99 | 6.59 |
| 05:29 | 1 | 13.4 | 79 | 38,460 | 0.31 | 0 | 3.16 | 17.86 | 14.33 | 0 | 2.86 | 5.99 | 6.59 |
| 05:28 | 1 | 13.4 | 79 | 38,460 | 0.32 | 0 | 3.17 | 11.28 | 22.61 | 0 | 3.71 | 5.98 | 6.58 |